Hourly Weather Luka

Today, 7 May, Friday

Time Temperature Precipitation Wind Pressure Humidity
00:00 +2°C° 0 mm 3 mps 737 mmHg 94%
01:00 +2°C° 0 mm 3 mps 737 mmHg 93%
02:00 +2°C° 0 mm 3 mps 738 mmHg 94%
03:00 +1°C° 0 mm 3 mps 738 mmHg 94%
04:00 +1°C° 0 mm 3 mps 738 mmHg 94%
05:00 +1°C° 0 mm 3 mps 738 mmHg 94%
06:00 +3°C° 0 mm 3 mps 738 mmHg 86%
07:00 +5°C° 0 mm 4 mps 739 mmHg 78%
08:00 +6°C° 0 mm 5 mps 739 mmHg 69%
09:00 +8°C° 0.1 mm 5 mps 739 mmHg 63%
10:00 +9°C° 0.1 mm 5 mps 739 mmHg 57%
11:00 +10°C° 0.1 mm 6 mps 739 mmHg 51%
12:00 +10°C° 0.1 mm 5 mps 739 mmHg 52%
13:00 +12°C° 0.1 mm 5 mps 739 mmHg 53%
14:00 +12°C° 0.1 mm 5 mps 739 mmHg 53%
15:00 +12°C° 0.1 mm 4 mps 738 mmHg 58%
16:00 +11°C° 0.1 mm 4 mps 738 mmHg 63%
17:00 +11°C° 0.1 mm 4 mps 738 mmHg 68%
18:00 +10°C° 0.1 mm 3 mps 738 mmHg 73%
19:00 +9°C° 0.1 mm 3 mps 738 mmHg 78%
20:00 +7°C° 0.1 mm 3 mps 738 mmHg 84%
21:00 +7°C° 0.4 mm 3 mps 737 mmHg 86%
22:00 +6°C° 0.4 mm 4 mps 737 mmHg 88%
23:00 +6°C° 0.4 mm 5 mps 737 mmHg 90%

Tomorrow, 8 May, Saturday

Time Temperature Precipitation Wind Pressure Humidity
00:00 +6°C° 0.5 mm 5 mps 736 mmHg 92%
01:00 +6°C° 0.5 mm 4 mps 735 mmHg 93%
02:00 +6°C° 0.5 mm 4 mps 735 mmHg 95%
03:00 +7°C° 0.1 mm 3 mps 735 mmHg 95%
04:00 +8°C° 0.1 mm 3 mps 735 mmHg 95%
05:00 +8°C° 0.1 mm 2 mps 735 mmHg 96%
06:00 +8°C° 0.1 mm 2 mps 735 mmHg 93%
07:00 +8°C° 0.1 mm 2 mps 735 mmHg 90%
08:00 +9°C° 0.1 mm 2 mps 735 mmHg 87%
09:00 +9°C° 0.1 mm 2 mps 735 mmHg 83%
10:00 +10°C° 0.1 mm 3 mps 735 mmHg 79%
11:00 +10°C° 0.1 mm 3 mps 735 mmHg 75%
12:00 +10°C° 0.1 mm 4 mps 735 mmHg 74%
13:00 +8°C° 0.1 mm 4 mps 735 mmHg 73%
14:00 +8°C° 0.1 mm 5 mps 735 mmHg 72%
15:00 +8°C° 0 mm 5 mps 735 mmHg 73%
16:00 +8°C° 0 mm 5 mps 735 mmHg 73%
17:00 +7°C° 0 mm 5 mps 736 mmHg 73%
18:00 +7°C° 0.1 mm 5 mps 736 mmHg 73%
19:00 +6°C° 0.1 mm 5 mps 736 mmHg 73%
20:00 +6°C° 0.1 mm 5 mps 737 mmHg 73%
21:00 +5°C° 0.2 mm 5 mps 737 mmHg 77%
22:00 +5°C° 0.2 mm 5 mps 737 mmHg 81%
23:00 +3°C° 0.2 mm 5 mps 738 mmHg 85%

Day after tomorrow, 9 May, Sunday

Time Temperature Precipitation Wind Pressure Humidity
00:00 +3°C° 0.1 mm 5 mps 739 mmHg 86%
01:00 +2°C° 0.1 mm 5 mps 739 mmHg 86%
02:00 +2°C° 0.1 mm 5 mps 740 mmHg 86%
03:00 +2°C° 0 mm 5 mps 740 mmHg 86%
04:00 +1°C° 0 mm 5 mps 741 mmHg 86%
05:00 +1°C° 0 mm 5 mps 742 mmHg 86%
06:00 +2°C° 0 mm 5 mps 742 mmHg 79%
07:00 +3°C° 0 mm 6 mps 743 mmHg 72%
08:00 +4°C° 0 mm 6 mps 744 mmHg 65%
09:00 +5°C° 0 mm 6 mps 744 mmHg 58%
10:00 +8°C° 0 mm 6 mps 744 mmHg 50%
11:00 +9°C° 0 mm 6 mps 745 mmHg 43%
12:00 +10°C° 0 mm 6 mps 745 mmHg 40%
13:00 +10°C° 0 mm 6 mps 746 mmHg 38%
14:00 +12°C° 0 mm 5 mps 746 mmHg 36%
15:00 +12°C° 0 mm 5 mps 747 mmHg 39%
16:00 +11°C° 0 mm 4 mps 747 mmHg 42%
17:00 +11°C° 0 mm 3 mps 747 mmHg 45%
18:00 +10°C° 0 mm 3 mps 748 mmHg 51%
19:00 +8°C° 0 mm 2 mps 748 mmHg 57%
20:00 +6°C° 0 mm 2 mps 749 mmHg 64%
21:00 +6°C° 0 mm 1 mps 749 mmHg 66%
22:00 +6°C° 0 mm 1 mps 750 mmHg 68%
23:00 +5°C° 0 mm 1 mps 750 mmHg 70%

10 May, Monday

Time Temperature Precipitation Wind Pressure Humidity
00:00 +5°C° 0 mm 1 mps 751 mmHg 71%
01:00 +4°C° 0 mm 1 mps 751 mmHg 73%
02:00 +4°C° 0 mm 1 mps 751 mmHg 74%
03:00 +4°C° 0 mm 1 mps 752 mmHg 73%
04:00 +5°C° 0 mm 1 mps 752 mmHg 73%
05:00 +5°C° 0 mm 1 mps 752 mmHg 72%
06:00 +7°C° 0 mm 1 mps 753 mmHg 66%
07:00 +9°C° 0 mm 1 mps 753 mmHg 60%
08:00 +12°C° 0 mm 1 mps 753 mmHg 54%
09:00 +13°C° 0 mm 2 mps 753 mmHg 51%
10:00 +14°C° 0 mm 2 mps 753 mmHg 48%
11:00 +15°C° 0 mm 2 mps 753 mmHg 44%
12:00 +16°C° 0 mm 2 mps 753 mmHg 44%
13:00 +16°C° 0 mm 1 mps 753 mmHg 43%
14:00 +18°C° 0 mm 1 mps 753 mmHg 43%
15:00 +18°C° 0 mm 1 mps 753 mmHg 45%
16:00 +18°C° 0 mm 1 mps 753 mmHg 47%
17:00 +16°C° 0 mm 0 mps 753 mmHg 49%
18:00 +15°C° 0 mm 1 mps 753 mmHg 56%
19:00 +13°C° 0 mm 1 mps 753 mmHg 63%
20:00 +11°C° 0 mm 1 mps 753 mmHg 70%
21:00 +10°C° 0 mm 1 mps 753 mmHg 72%
22:00 +10°C° 0 mm 1 mps 753 mmHg 74%
23:00 +9°C° 0 mm 1 mps 754 mmHg 76%

11 May, Tuesday

Time Temperature Precipitation Wind Pressure Humidity
00:00 +9°C° 0 mm 1 mps 754 mmHg 76%
01:00 +8°C° 0 mm 1 mps 754 mmHg 76%
02:00 +8°C° 0 mm 1 mps 754 mmHg 77%
03:00 +8°C° 0 mm 1 mps 754 mmHg 76%
04:00 +8°C° 0 mm 1 mps 754 mmHg 76%
05:00 +7°C° 0 mm 2 mps 754 mmHg 76%
06:00 +9°C° 0 mm 2 mps 754 mmHg 69%
07:00 +12°C° 0 mm 2 mps 754 mmHg 61%
08:00 +14°C° 0 mm 2 mps 754 mmHg 54%
09:00 +14°C° 0 mm 3 mps 754 mmHg 50%
10:00 +16°C° 0 mm 3 mps 754 mmHg 46%
11:00 +18°C° 0 mm 3 mps 754 mmHg 42%
12:00 +18°C° 0 mm 3 mps 753 mmHg 42%
13:00 +19°C° 0 mm 4 mps 753 mmHg 42%
14:00 +19°C° 0 mm 4 mps 753 mmHg 41%
15:00 +19°C° 0 mm 3 mps 752 mmHg 45%
16:00 +19°C° 0 mm 3 mps 752 mmHg 49%
17:00 +18°C° 0 mm 3 mps 752 mmHg 52%
18:00 +16°C° 0 mm 3 mps 752 mmHg 60%
19:00 +13°C° 0 mm 3 mps 752 mmHg 68%
20:00 +12°C° 0 mm 2 mps 752 mmHg 76%
21:00 +12°C° 0 mm 2 mps 752 mmHg 78%
22:00 +10°C° 0 mm 2 mps 752 mmHg 79%
23:00 +10°C° 0 mm 2 mps 752 mmHg 81%

12 May, Wednesday

Time Temperature Precipitation Wind Pressure Humidity
00:00 +9°C° 0 mm 2 mps 752 mmHg 82%
01:00 +9°C° 0 mm 2 mps 752 mmHg 84%
02:00 +9°C° 0 mm 2 mps 751 mmHg 85%
03:00 +9°C° 0 mm 2 mps 751 mmHg 85%
04:00 +9°C° 0 mm 2 mps 751 mmHg 84%
05:00 +9°C° 0 mm 2 mps 751 mmHg 84%
06:00 +12°C° 0 mm 2 mps 751 mmHg 76%
07:00 +13°C° 0 mm 3 mps 751 mmHg 69%
08:00 +16°C° 0 mm 3 mps 751 mmHg 62%
09:00 +17°C° 0 mm 4 mps 751 mmHg 59%
10:00 +19°C° 0 mm 4 mps 750 mmHg 55%
11:00 +20°C° 0 mm 4 mps 750 mmHg 52%
12:00 +20°C° 0 mm 5 mps 750 mmHg 52%
13:00 +21°C° 0 mm 5 mps 749 mmHg 52%
14:00 +22°C° 0 mm 5 mps 749 mmHg 52%
15:00 +21°C° 0 mm 5 mps 748 mmHg 56%
16:00 +21°C° 0 mm 5 mps 748 mmHg 60%
17:00 +20°C° 0 mm 5 mps 748 mmHg 63%
18:00 +19°C° 0.1 mm 4 mps 748 mmHg 70%
19:00 +17°C° 0.1 mm 4 mps 748 mmHg 77%
20:00 +16°C° 0.1 mm 3 mps 748 mmHg 84%
21:00 +16°C° 0.1 mm 3 mps 748 mmHg 87%
22:00 +14°C° 0.1 mm 3 mps 748 mmHg 90%
23:00 +15°C° 0.1 mm 2 mps 747 mmHg 94%
Show more

We Need Your Consent

Meteoprog and our Service Providers may store and access personal data such as cookies, device identifiers or other similar technologies on your device and process such data to personalise content and ads, as well as provide social media features and to analyse the traffic.

  • Store and/or access information on your device

    Cookies, device identifiers or other information can be stored or accessed on your device for the purposes indicated above.

  • Personalised ads and content, ad and content measurement, audience insights, and products development

    Ads and content can be personalised based on a profile. More data can be added to better personalise ads and content. Ad and content performance can be measured. Insights about the audience who saw the ads and content can be derived. Such data can be used to develop or improve user’s experience, systems and software.

By clicking ‘I Agree’ you will allow the use of indicated cookies, device identifiers, web beacons or other similar technologies. Your settings can be changed in the browser on your device.

For certain purposes, legitimate interests may be relied on, rather than consent. You can read more about this in our Privacy and Cookie Policy.